[[{"header":{"parameterUnit":"m.s-1","parameterCategory":1,"la1":30.2991,"la2":30.254,"lo1":-89.0895,"lo2":-89.0444,"dy":0.0017,"dx":0.0017,"nx":28,"ny":28,"refTime":"2025-06-03T21:00:00:Z","depth":0,"parameterNumber":2,"parameterNumberName":"U-component_of_WINDS"},"data":[0,0,0,0,0,0,0,0,0,0,0,0,0,0,0,0,0,0,0,0,0,0,0,0,0,0,0,0,0,0,0,0,0,0,0,0,0,0,0,0,0,0,0,0,0,0,0,0,0,0,0,0,0,0,0,0,0,0,0.1166,0.1166,0,0.1163,0.1163,0.1163,0.1173,0.1174,0.1174,0.1174,0.117,0.117,0.1169,0,0,0,0,0,0,0,0,0,0,0,0,0,0.1179,0.1179,0.1166,0.1166,0.1166,0.1163,0.1163,0.1163,0.1173,0.1174,0.1174,0.1174,0.117,0.117,0.1169,0,0,0,0,0,0,0,0,0,0,0,0,0,0.1175,0.1179,0.1166,0.1171,0.1171,0.1163,0.1163,0.1163,0.1173,0.1174,0.1174,0.1175,0.1171,0.117,0.1169,0.1156,0,0,0.1167,0.1167,0,0,0,0,0,0,0,0,0.1175,0.1174,0.117,0.117,0.1171,0.1169,0.1166,0.116,0.1173,0.1172,0.1174,0.1175,0.1169,0.1169,0.1167,0.1156,0.1156,0.1167,0.1167,0.1167,0.1167,0,0,0,0,0,0,0,0.1175,0.1174,0.1164,0.117,0.117,0.1173,0.1172,0.1165,0.1168,0.1172,0.1173,0.1173,0.117,0.1168,0.1167,0.1156,0.1167,0.1167,0.1167,0.1166,0.1133,0.1132,0,0,0,0,0,0,0.1175,0.1174,0.1165,0.1164,0.1174,0.1172,0.1172,0.1169,0.1168,0.1169,0.1172,0.1173,0.1169,0.1168,0.1167,0.1151,0.1167,0.1166,0.1166,0.1133,0.1133,0.1132,0,0,0,0,0,0,0.1175,0.1174,0.1165,0.117,0.1169,0.1171,0.1168,0.1169,0.1167,0.1168,0.1169,0.117,0.1169,0.1168,0.1159,0.1151,0.1166,0.1165,0.1134,0.1133,0.1132,0.1119,0,0,0,0,0,0,0.1176,0.1174,0.1169,0.1169,0.1168,0.1156,0.1167,0.1168,0.1166,0.1167,0.1166,0.1166,0.1169,0.1159,0.1158,0.115,0.1165,0.1134,0.1133,0.1132,0.112,0.1117,0.1115,0,0,0,0,0,0.1176,0.1165,0.1169,0.1168,0.1162,0.1156,0.1155,0.1159,0.1165,0.116,0.1161,0.1166,0.1152,0.1158,0.1157,0.1149,0.1135,0.1134,0.1133,0.1121,0.1118,0.1115,0,0,0,0,0,0,0.1163,0.1165,0.1169,0.1158,0.1157,0.1158,0.1151,0.1156,0.1153,0.1154,0.1158,0.1158,0.1148,0.1148,0.1154,0.1136,0.1145,0.1143,0.1136,0.1133,0.1131,0.1131,0.1164,0,0,0,0,0,0.1159,0.1154,0.1156,0.1146,0.1146,0.1149,0.1146,0.1149,0.1148,0.1147,0.1147,0.1145,0.1141,0.1137,0.1133,0.112,0.112,0.1114,0.1112,0.111,0.1108,0.1101,0.1098,0.1128,0.1128,0.1128,0,0,0.1151,0.1151,0.1148,0.1144,0.1143,0.1137,0.1148,0.1142,0.1137,0.1146,0.1137,0.1137,0.1136,0.1124,0.1119,0.1124,0.11,0.1109,0.1107,0.1106,0.11,0.1097,0.1094,0.1127,0.1127,0.1128,0,0,0.1132,0.1132,0.1124,0.1123,0.1122,0.1124,0.1122,0.1123,0.1123,0.1114,0.1121,0.1116,0.1108,0.1106,0.1104,0.1085,0.109,0.1084,0.1072,0.1065,0.1063,0.1061,0.1053,0.1051,0.1082,0.1082,0.1082,0,0.1121,0.1113,0.1119,0.1112,0.111,0.1118,0.1109,0.1108,0.1106,0.1104,0.1109,0.1099,0.1098,0.1087,0.1082,0.1081,0.1078,0.1083,0.1063,0.1061,0.1059,0.1052,0.1049,0.1082,0.1082,0.1082,0.1082,0,0.11,0.1094,0.1087,0.1085,0.1082,0.1075,0.1079,0.1075,0.1079,0.1081,0.1071,0.1071,0.1067,0.1065,0.1068,0.1053,0.1056,0.1062,0.1071,0.1055,0.1049,0.1046,0.108,0.1081,0.1081,0.1081,0,0,0.1071,0.1073,0.107,0.1069,0.1069,0.1065,0.1057,0.1054,0.105,0.1049,0.1042,0.1035,0.1041,0.1039,0.1042,0.1036,0.102,0.1043,0.1043,0.1038,0.1004,0.0998,0.0995,0.1024,0.1024,0.1023,0.1003,0,0.1052,0.104,0.1045,0.1032,0.1026,0.1035,0.1028,0.1028,0.1029,0.1025,0.1026,0.1021,0.1029,0.1028,0.1022,0.1024,0.1013,0.1025,0.1017,0.1017,0.1016,0.0992,0.0986,0.0967,0.1001,0.1001,0.1,0,0.1028,0.1025,0.1012,0.1013,0.1011,0.1005,0.1002,0.0998,0.0997,0.0998,0.0996,0.1001,0.0994,0.1004,0.0993,0.1001,0.0998,0.0998,0.0998,0.0996,0.1007,0.0988,0.0961,0.0958,0.0996,0.0997,0.0997,0,0.1007,0.1001,0.0992,0.0991,0.0992,0.0988,0.0988,0.0988,0.0985,0.0983,0.0981,0.0977,0.0975,0.0972,0.0976,0.0983,0.0965,0.0975,0.0965,0.0965,0.096,0.096,0.093,0.096,0.096,0.096,0.096,0,0.0985,0.0976,0.0983,0.0977,0.0967,0.0974,0.0964,0.0965,0.0965,0.0959,0.0967,0.0961,0.0967,0.0962,0.0965,0.0956,0.0955,0.0955,0.0956,0.0954,0.0954,0.0951,0.0952,0.0959,0.0959,0.0959,0.096,0,0.0959,0.0964,0.0954,0.0957,0.0957,0.095,0.0951,0.0946,0.0949,0.0942,0.094,0.0944,0.0939,0.0943,0.0937,0.0939,0.0926,0.0929,0.0926,0.0927,0.0916,0.0917,0.0884,0.0879,0.0913,0.0912,0.0912,0,0.0944,0.0937,0.0939,0.0936,0.0936,0.0931,0.0929,0.0935,0.0932,0.0931,0.0925,0.0921,0.0917,0.0908,0.091,0.0906,0.0908,0.0897,0.0908,0.0906,0.0907,0.0907,0.0906,0.0895,0.0894,0.0894,0.0894,0,0.0915,0.0918,0.0915,0.0912,0.0909,0.0907,0.0905,0.0902,0.0909,0.0905,0.09,0.0897,0.0892,0.0887,0.0884,0.0884,0.0889,0.0891,0.0888,0.0885,0.0883,0.0883,0.0919,0.0891,0.0891,0.0891,0.0891,0.0892,0.0894,0.0888,0.0889,0.0884,0.0884,0.0883,0.0878,0.088,0.0876,0.0872,0.0877,0.087,0.087,0.0866,0.0865,0.086,0.0865,0.0861,0.086,0.0859,0.0857,0.0885,0.086,0.086,0.086,0.086,0.086,0,0.0865,0.0866,0.0862,0.086,0.0857,0.0863,0.0862,0.0859,0.0853,0.0853,0.0849,0.0843,0.0839,0.0841,0.0837,0.0832,0.0835,0.0831,0.083,0.083,0.0853,0.0855,0.0829,0.0829,0.0829,0.0829,0.0829,0.0829,0.0849,0.084,0.0843,0.0834,0.0835,0.0829,0.0828,0.0826,0.0826,0.0819,0.0815,0.0817,0.0818,0.0814,0.081,0.081,0.0808,0.0803,0.0804,0.0826,0.0829,0.0832,0.0834,0.0803,0.0803,0.0782,0.0782,0.0781]},{"header":{"parameterUnit":"m.s-1","parameterCategory":1,"la1":30.2991,"la2":30.254,"lo1":-89.0895,"lo2":-89.0444,"dy":0.0017,"dx":0.0017,"nx":28,"ny":28,"refTime":"2025-06-03T21:00:00:Z","depth":0,"parameterNumber":3,"parameterNumberName":"V-component_of_WINDS"},"data":[0,0,0,0,0,0,0,0,0,0,0,0,0,0,0,0,0,0,0,0,0,0,0,0,0,0,0,0,0,0,0,0,0,0,0,0,0,0,0,0,0,0,0,0,0,0,0,0,0,0,0,0,0,0,0,0,0,0,1.1407,1.1407,0,1.146,1.146,1.1461,1.1434,1.1432,1.1431,1.143,1.1484,1.1487,1.1489,0,0,0,0,0,0,0,0,0,0,0,0,0,1.1282,1.1284,1.1407,1.1407,1.1408,1.146,1.146,1.1461,1.1434,1.1432,1.1431,1.1429,1.1483,1.1486,1.149,0,0,0,0,0,0,0,0,0,0,0,0,0,1.1336,1.1285,1.1407,1.1401,1.1401,1.1459,1.146,1.1461,1.1434,1.1432,1.143,1.1428,1.1482,1.1486,1.149,1.1558,0,0,1.1503,1.1504,0,0,0,0,0,0,0,0,1.1333,1.134,1.1401,1.1401,1.1401,1.1438,1.1436,1.1494,1.1435,1.1422,1.143,1.1427,1.147,1.1475,1.149,1.156,1.1562,1.1503,1.1505,1.1507,1.1508,0,0,0,0,0,0,0,1.1329,1.1338,1.1428,1.1402,1.1402,1.1395,1.1401,1.1447,1.1457,1.1423,1.1421,1.1427,1.147,1.1486,1.1491,1.1563,1.1503,1.1507,1.1509,1.1511,1.169,1.1692,0,0,0,0,0,0,1.1325,1.1335,1.1426,1.1429,1.1361,1.1399,1.1405,1.1428,1.1457,1.1459,1.1429,1.1426,1.148,1.1486,1.1493,1.1573,1.1507,1.1511,1.1513,1.1688,1.169,1.1693,0,0,0,0,0,0,1.1323,1.1334,1.1424,1.1382,1.1392,1.1404,1.143,1.143,1.1446,1.1461,1.1463,1.1443,1.1478,1.1487,1.1541,1.1574,1.1513,1.1517,1.1685,1.1689,1.1692,1.1734,0,0,0,0,0,0,1.1319,1.1333,1.1359,1.1382,1.1395,1.1472,1.1432,1.1433,1.1453,1.145,1.1475,1.1478,1.1477,1.1535,1.1545,1.1579,1.152,1.1682,1.1687,1.1691,1.173,1.1738,1.1746,0,0,0,0,0,1.1315,1.1369,1.1361,1.1372,1.1428,1.1474,1.1481,1.148,1.1456,1.1482,1.1492,1.1477,1.1569,1.1541,1.1552,1.1587,1.168,1.1685,1.169,1.1726,1.1737,1.1745,0,0,0,0,0,0,1.135,1.1372,1.1363,1.1426,1.1448,1.1469,1.1502,1.1491,1.1521,1.1516,1.1513,1.1519,1.1575,1.1587,1.1555,1.1653,1.1621,1.1628,1.1644,1.1654,1.1662,1.1658,1.1523,0,0,0,0,0,1.1365,1.1401,1.1418,1.1473,1.1484,1.1491,1.1511,1.1508,1.1531,1.1541,1.1554,1.1577,1.161,1.1633,1.1665,1.1731,1.1736,1.176,1.1768,1.1775,1.1782,1.1816,1.1827,1.171,1.171,1.171,0,0,1.1397,1.1413,1.1436,1.148,1.1497,1.1534,1.1499,1.154,1.1567,1.1547,1.1599,1.1609,1.1634,1.1694,1.1721,1.1706,1.1815,1.1782,1.1787,1.179,1.1822,1.1834,1.1843,1.1713,1.1713,1.1712,0,0,1.1473,1.149,1.1536,1.1553,1.1579,1.1583,1.1594,1.1616,1.1623,1.1674,1.1659,1.1691,1.175,1.1768,1.1785,1.1867,1.1854,1.1877,1.192,1.1953,1.1962,1.1971,1.1999,1.2009,1.1884,1.1884,1.1884,0,1.151,1.1564,1.1561,1.1603,1.1622,1.1605,1.1651,1.1668,1.1703,1.1717,1.1698,1.1771,1.1786,1.185,1.1869,1.1884,1.1896,1.1875,1.1961,1.1969,1.1977,1.2004,1.2015,1.1887,1.1886,1.1886,1.1886,0,1.1607,1.1645,1.168,1.1713,1.1736,1.178,1.1783,1.1807,1.1802,1.1808,1.186,1.1878,1.1913,1.1928,1.1923,1.199,1.1979,1.1961,1.1928,1.1991,1.2016,1.2026,1.189,1.1889,1.1889,1.1888,0,0,1.1708,1.1738,1.1751,1.1765,1.1791,1.1821,1.1863,1.1897,1.1917,1.1941,1.1976,1.2026,1.2009,1.2028,1.2025,1.2055,1.2117,1.2033,1.2033,1.2047,1.2191,1.2204,1.2216,1.2108,1.211,1.2112,1.2188,0,1.1785,1.186,1.1858,1.1927,1.1961,1.1945,1.1982,1.2001,1.2008,1.2038,1.2045,1.208,1.2055,1.2066,1.2095,1.2103,1.2146,1.2098,1.2141,1.2142,1.2135,1.2229,1.2244,1.2315,1.2198,1.22,1.2201,0,1.1886,1.1913,1.1985,1.2005,1.202,1.2053,1.2083,1.2112,1.2134,1.2136,1.2157,1.2149,1.2192,1.2158,1.2216,1.2183,1.22,1.2207,1.221,1.2214,1.2175,1.2235,1.2338,1.2349,1.2217,1.2216,1.2215,0,1.1951,1.2006,1.2056,1.2069,1.2093,1.2117,1.2128,1.2148,1.2168,1.2194,1.2207,1.2238,1.2255,1.2279,1.2279,1.2254,1.2337,1.2303,1.234,1.234,1.2358,1.2357,1.2465,1.237,1.237,1.237,1.237,0,1.2038,1.2083,1.2085,1.2116,1.2165,1.2162,1.2211,1.222,1.2237,1.2269,1.2257,1.2287,1.2285,1.2316,1.2316,1.2364,1.2372,1.2375,1.2374,1.2376,1.2375,1.2387,1.2382,1.2373,1.2372,1.2372,1.2371,0,1.2119,1.2123,1.2176,1.2194,1.22,1.2235,1.2251,1.228,1.2285,1.2325,1.2335,1.2342,1.2377,1.238,1.2421,1.2421,1.2478,1.2473,1.2471,1.247,1.2506,1.2502,1.2625,1.264,1.2536,1.2537,1.2538,0,1.2174,1.2208,1.223,1.225,1.2262,1.2295,1.2315,1.2313,1.2335,1.2361,1.2387,1.242,1.2447,1.2504,1.2513,1.2543,1.2538,1.2579,1.2543,1.2543,1.2538,1.2536,1.2539,1.2586,1.2587,1.2588,1.2589,0,1.2271,1.2271,1.23,1.2329,1.2353,1.2377,1.2399,1.2416,1.2416,1.2441,1.2476,1.2497,1.2538,1.2571,1.2601,1.2612,1.2601,1.26,1.261,1.2612,1.2609,1.261,1.2489,1.2597,1.2596,1.2596,1.2595,1.2595,1.234,1.2369,1.2388,1.2421,1.2437,1.2457,1.2485,1.2493,1.2522,1.2555,1.2552,1.2591,1.2611,1.2649,1.2663,1.2693,1.2679,1.2694,1.2698,1.2701,1.2705,1.2604,1.2699,1.2698,1.2698,1.2698,1.2698,0,1.2436,1.2447,1.2477,1.2507,1.2533,1.2519,1.2542,1.2564,1.2599,1.2618,1.2644,1.2684,1.2716,1.2727,1.2758,1.278,1.2776,1.2788,1.2787,1.2789,1.2716,1.2704,1.2792,1.2792,1.2792,1.2792,1.2791,1.2791,1.2488,1.2536,1.2538,1.2593,1.2604,1.2642,1.2656,1.2674,1.2689,1.2735,1.2761,1.2768,1.2784,1.2815,1.2844,1.2846,1.2858,1.2873,1.2873,1.2804,1.2795,1.2786,1.2774,1.2875,1.2876,1.2944,1.2944,1.2945]}]]